Time,TemperatureF,DewpointF,PressureIn,WindDirection,WindDirectionDegrees,WindSpeedMPH,WindSpeedGustMPH,Humidity,HourlyPrecipIn,Conditions,Clouds,dailyrainin,SoftwareType,DateUTC
2013-05-14 00:03:00,70.9,50.8,30.06,SW,232,0.0,8.0,49,0.00,,---,0.00,VWS V13.01,2013-05-14 05:03:00,
2013-05-14 00:08:00,70.9,50.8,30.06,West,272,1.0,1.0,49,0.00,,---,0.00,VWS V13.01,2013-05-14 05:08:00,
2013-05-14 00:13:00,70.9,50.8,30.06,WSW,239,0.0,4.0,49,0.00,,---,0.00,VWS V13.01,2013-05-14 05:13:00,
2013-05-14 00:19:00,70.8,50.7,30.06,WSW,239,0.0,4.0,49,0.00,,---,0.00,VWS V13.01,2013-05-14 05:19:00,
2013-05-14 00:24:00,70.8,50.7,30.06,SW,236,0.0,4.0,49,0.00,,---,0.00,VWS V13.01,2013-05-14 05:24:00,
2013-05-14 00:29:00,70.7,50.6,30.06,WSW,250,0.0,4.0,49,0.00,,---,0.00,VWS V13.01,2013-05-14 05:29:00,
2013-05-14 00:34:00,70.6,50.5,30.06,SW,234,0.0,6.0,49,0.00,,---,0.00,VWS V13.01,2013-05-14 05:34:00,
2013-05-14 00:39:00,70.5,51.0,30.06,SW,234,0.0,0.0,50,0.00,,---,0.00,VWS V13.01,2013-05-14 05:39:00,
2013-05-14 00:44:00,70.3,50.8,30.06,SW,234,0.0,2.0,50,0.00,,---,0.00,VWS V13.01,2013-05-14 05:44:00,
2013-05-14 00:49:00,70.3,50.3,30.06,SW,234,0.0,4.0,49,0.00,,---,0.00,VWS V13.01,2013-05-14 05:49:00,
2013-05-14 00:54:00,70.3,50.8,30.06,SW,234,0.0,4.0,50,0.00,,---,0.00,VWS V13.01,2013-05-14 05:54:00,
2013-05-14 00:59:00,70.2,51.2,30.06,SW,234,0.0,4.0,51,0.00,,---,0.00,VWS V13.01,2013-05-14 05:59:00,
2013-05-14 01:04:00,70.2,51.2,30.06,SW,233,0.0,4.0,51,0.00,,---,0.00,VWS V13.01,2013-05-14 06:04:00,
2013-05-14 01:09:00,70.0,51.6,30.05,SW,233,0.0,0.0,52,0.00,,---,0.00,VWS V13.01,2013-05-14 06:09:00,
2013-05-14 01:14:00,69.8,50.9,30.05,SW,234,0.0,0.0,51,0.00,,---,0.00,VWS V13.01,2013-05-14 06:14:00,
2013-05-14 01:19:00,69.6,51.2,30.05,SW,234,0.0,0.0,52,0.00,,---,0.00,VWS V13.01,2013-05-14 06:19:00,
2013-05-14 01:24:00,69.4,51.0,30.05,SW,233,0.0,0.0,52,0.00,,---,0.00,VWS V13.01,2013-05-14 06:24:00,
2013-05-14 01:29:00,69.1,50.8,30.05,SW,234,0.0,0.0,52,0.00,,---,0.00,VWS V13.01,2013-05-14 06:29:00,
2013-05-14 01:34:00,68.9,51.1,30.05,SW,234,0.0,0.0,53,0.00,,---,0.00,VWS V13.01,2013-05-14 06:34:00,
2013-05-14 01:40:00,68.5,51.2,30.05,SW,234,0.0,0.0,54,0.00,,---,0.00,VWS V13.01,2013-05-14 06:40:00,
2013-05-14 01:45:00,68.3,51.0,30.05,SW,233,0.0,0.0,54,0.00,,---,0.00,VWS V13.01,2013-05-14 06:45:00,
2013-05-14 01:50:00,67.9,51.2,30.05,SW,233,0.0,0.0,55,0.00,,---,0.00,VWS V13.01,2013-05-14 06:50:00,
2013-05-14 01:55:00,67.6,50.9,30.05,SW,234,0.0,0.0,55,0.00,,---,0.00,VWS V13.01,2013-05-14 06:55:00,
2013-05-14 02:00:00,67.3,51.1,30.05,SW,234,0.0,0.0,56,0.00,,---,0.00,VWS V13.01,2013-05-14 07:00:00,
2013-05-14 02:05:00,67.0,50.8,30.05,SW,233,0.0,0.0,56,0.00,,---,0.00,VWS V13.01,2013-05-14 07:05:00,
2013-05-14 02:10:00,66.7,50.5,30.05,SW,234,0.0,0.0,56,0.00,,---,0.00,VWS V13.01,2013-05-14 07:10:00,
2013-05-14 02:15:00,66.5,50.8,30.05,SW,234,0.0,0.0,57,0.00,,---,0.00,VWS V13.01,2013-05-14 07:15:00,
2013-05-14 02:20:00,66.3,51.1,30.05,SW,234,0.0,0.0,58,0.00,,---,0.00,VWS V13.01,2013-05-14 07:20:00,
2013-05-14 02:25:00,66.0,50.3,30.04,SW,234,0.0,0.0,57,0.00,,---,0.00,VWS V13.01,2013-05-14 07:25:00,
2013-05-14 02:30:00,65.8,51.1,30.04,SW,234,0.0,0.0,59,0.00,,---,0.00,VWS V13.01,2013-05-14 07:30:00,
2013-05-14 02:35:00,65.6,50.9,30.04,SW,234,0.0,1.0,59,0.00,,---,0.00,VWS V13.01,2013-05-14 07:35:00,
2013-05-14 02:40:00,65.3,50.6,30.04,SW,221,0.0,5.0,59,0.00,,---,0.00,VWS V13.01,2013-05-14 07:40:00,
2013-05-14 02:45:00,65.2,50.1,30.04,SW,221,1.0,5.0,58,0.00,,---,0.00,VWS V13.01,2013-05-14 07:45:00,
2013-05-14 02:50:00,65.2,49.6,30.04,SW,221,0.0,5.0,57,0.00,,---,0.00,VWS V13.01,2013-05-14 07:50:00,
2013-05-14 02:55:00,65.6,49.0,30.04,SW,221,0.0,5.0,55,0.00,,---,0.00,VWS V13.01,2013-05-14 07:55:00,
2013-05-14 03:00:00,66.0,49.9,30.03,SW,221,0.0,5.0,56,0.00,,---,0.00,VWS V13.01,2013-05-14 08:00:00,
2013-05-14 03:05:00,66.2,50.1,30.04,SW,221,0.0,5.0,56,0.00,,---,0.00,VWS V13.01,2013-05-14 08:05:00,
2013-05-14 03:10:00,66.3,50.2,30.04,SW,221,0.0,0.0,56,0.00,,---,0.00,VWS V13.01,2013-05-14 08:10:00,
2013-05-14 03:15:00,66.4,50.2,30.03,SW,221,0.0,0.0,56,0.00,,---,0.00,VWS V13.01,2013-05-14 08:15:00,
2013-05-14 03:20:00,66.4,50.2,30.04,SW,221,0.0,0.0,56,0.00,,---,0.00,VWS V13.01,2013-05-14 08:20:00,
2013-05-14 03:25:00,66.3,50.2,30.04,SW,221,0.0,0.0,56,0.00,,---,0.00,VWS V13.01,2013-05-14 08:25:00,
2013-05-14 03:30:00,66.2,50.1,30.04,SW,221,0.0,0.0,56,0.00,,---,0.00,VWS V13.01,2013-05-14 08:30:00,
2013-05-14 03:35:00,66.0,49.9,30.04,SW,221,0.0,0.0,56,0.00,,---,0.00,VWS V13.01,2013-05-14 08:35:00,
2013-05-14 03:41:00,65.8,49.7,30.04,SW,221,0.0,0.0,56,0.00,,---,0.00,VWS V13.01,2013-05-14 08:41:00,
2013-05-14 03:46:00,65.6,50.0,30.04,SW,221,0.0,0.0,57,0.00,,---,0.00,VWS V13.01,2013-05-14 08:46:00,
2013-05-14 03:51:00,65.3,50.2,30.03,SW,221,0.0,0.0,58,0.00,,---,0.00,VWS V13.01,2013-05-14 08:51:00,
2013-05-14 03:56:00,65.1,50.4,30.04,SW,221,0.0,0.0,59,0.00,,---,0.00,VWS V13.01,2013-05-14 08:56:00,
2013-05-14 04:01:00,64.9,50.2,30.03,SW,221,0.0,1.0,59,0.00,,---,0.00,VWS V13.01,2013-05-14 09:01:00,
2013-05-14 04:06:00,64.6,50.0,30.03,SW,221,0.0,1.0,59,0.00,,---,0.00,VWS V13.01,2013-05-14 09:06:00,
2013-05-14 04:11:00,64.4,50.2,30.03,SW,221,0.0,0.0,60,0.00,,---,0.00,VWS V13.01,2013-05-14 09:11:00,
2013-05-14 04:16:00,64.1,50.0,30.03,SW,221,0.0,0.0,60,0.00,,---,0.00,VWS V13.01,2013-05-14 09:16:00,
2013-05-14 04:21:00,63.9,50.2,30.03,SW,221,0.0,1.0,61,0.00,,---,0.00,VWS V13.01,2013-05-14 09:21:00,
2013-05-14 04:26:00,63.7,50.0,30.04,SW,221,0.0,1.0,61,0.00,,---,0.00,VWS V13.01,2013-05-14 09:26:00,
2013-05-14 04:31:00,63.5,50.3,30.04,SW,221,0.0,1.0,62,0.00,,---,0.00,VWS V13.01,2013-05-14 09:31:00,
2013-05-14 04:36:00,63.3,50.5,30.04,SW,221,0.0,0.0,63,0.00,,---,0.00,VWS V13.01,2013-05-14 09:36:00,
2013-05-14 04:42:00,63.1,50.3,30.04,SW,221,0.0,0.0,63,0.00,,---,0.00,VWS V13.01,2013-05-14 09:42:00,
2013-05-14 04:47:00,62.9,50.1,30.04,SW,221,0.0,0.0,63,0.00,,---,0.00,VWS V13.01,2013-05-14 09:47:00,
2013-05-14 04:52:00,62.7,49.9,30.04,SW,221,0.0,0.0,63,0.00,,---,0.00,VWS V13.01,2013-05-14 09:52:00,
2013-05-14 04:57:00,62.5,50.2,30.04,SW,221,0.0,0.0,64,0.00,,---,0.00,VWS V13.01,2013-05-14 09:57:00,
2013-05-14 05:02:00,62.4,50.1,30.04,SW,221,0.0,0.0,64,0.00,,---,0.00,VWS V13.01,2013-05-14 10:02:00,
2013-05-14 05:07:00,62.2,49.9,30.04,SW,221,0.0,0.0,64,0.00,,---,0.00,VWS V13.01,2013-05-14 10:07:00,
2013-05-14 05:12:00,62.1,49.8,30.04,SW,221,0.0,0.0,64,0.00,,---,0.00,VWS V13.01,2013-05-14 10:12:00,
2013-05-14 05:17:00,61.9,50.0,30.04,SW,221,0.0,1.0,65,0.00,,---,0.00,VWS V13.01,2013-05-14 10:17:00,
2013-05-14 05:22:00,61.8,50.3,30.05,SW,221,0.0,1.0,66,0.00,,---,0.00,VWS V13.01,2013-05-14 10:22:00,
2013-05-14 05:27:00,61.7,50.2,30.05,SW,221,0.0,1.0,66,0.00,,---,0.00,VWS V13.01,2013-05-14 10:27:00,
2013-05-14 05:32:00,61.5,50.0,30.05,SW,221,0.0,1.0,66,0.00,,---,0.00,VWS V13.01,2013-05-14 10:32:00,
2013-05-14 05:37:00,61.4,50.0,30.05,SW,221,0.0,0.0,66,0.00,,---,0.00,VWS V13.01,2013-05-14 10:37:00,
2013-05-14 05:42:00,61.3,49.9,30.05,SW,221,0.0,0.0,66,0.00,,---,0.00,VWS V13.01,2013-05-14 10:42:00,
2013-05-14 05:47:00,61.3,50.3,30.05,SW,221,0.0,0.0,67,0.00,,---,0.00,VWS V13.01,2013-05-14 10:47:00,
2013-05-14 05:52:00,61.2,50.2,30.05,SW,221,0.0,2.0,67,0.00,,---,0.00,VWS V13.01,2013-05-14 10:52:00,
2013-05-14 05:57:00,61.1,49.7,30.05,SW,221,0.0,2.0,66,0.00,,---,0.00,VWS V13.01,2013-05-14 10:57:00,
2013-05-14 06:02:00,61.1,49.7,30.05,SW,221,0.0,2.0,66,0.00,,---,0.00,VWS V13.01,2013-05-14 11:02:00,
2013-05-14 06:07:00,61.0,49.6,30.05,SW,221,0.0,0.0,66,0.00,,---,0.00,VWS V13.01,2013-05-14 11:07:00,
2013-05-14 06:12:00,60.9,49.9,30.05,SW,221,0.0,0.0,67,0.00,,---,0.00,VWS V13.01,2013-05-14 11:12:00,
2013-05-14 06:17:00,60.9,49.9,30.05,SW,221,0.0,0.0,67,0.00,,---,0.00,VWS V13.01,2013-05-14 11:17:00,
2013-05-14 06:22:00,60.8,49.8,30.06,SW,221,0.0,0.0,67,0.00,,---,0.00,VWS V13.01,2013-05-14 11:22:00,
2013-05-14 06:28:00,60.8,49.8,30.06,SW,221,0.0,0.0,67,0.00,,---,0.00,VWS V13.01,2013-05-14 11:28:00,
2013-05-14 06:33:00,60.7,50.1,30.06,SW,221,0.0,0.0,68,0.00,,---,0.00,VWS V13.01,2013-05-14 11:33:00,
2013-05-14 06:38:00,60.7,50.1,30.06,SW,221,0.0,0.0,68,0.00,,---,0.00,VWS V13.01,2013-05-14 11:38:00,
2013-05-14 06:43:00,60.6,50.4,30.06,SW,221,0.0,0.0,69,0.00,,---,0.00,VWS V13.01,2013-05-14 11:43:00,
2013-05-14 06:48:00,60.6,50.4,30.06,SW,221,0.0,0.0,69,0.00,,---,0.00,VWS V13.01,2013-05-14 11:48:00,
2013-05-14 06:53:00,60.5,50.3,30.06,SW,221,0.0,0.0,69,0.00,,---,0.00,VWS V13.01,2013-05-14 11:53:00,
2013-05-14 06:58:00,60.5,50.3,30.07,SW,221,0.0,0.0,69,0.00,,---,0.00,VWS V13.01,2013-05-14 11:58:00,
2013-05-14 07:03:00,60.5,50.7,30.07,SW,221,0.0,0.0,70,0.00,,---,0.00,VWS V13.01,2013-05-14 12:03:00,
2013-05-14 07:08:00,60.5,51.1,30.07,SW,221,0.0,0.0,71,0.00,,---,0.00,VWS V13.01,2013-05-14 12:08:00,
2013-05-14 07:13:00,60.5,51.4,30.08,SW,221,0.0,0.0,72,0.00,,---,0.00,VWS V13.01,2013-05-14 12:13:00,
2013-05-14 07:18:00,60.6,51.9,30.08,SW,221,0.0,0.0,73,0.00,,---,0.00,VWS V13.01,2013-05-14 12:18:00,
2013-05-14 07:23:00,60.8,52.5,30.08,SW,221,0.0,0.0,74,0.00,,---,0.00,VWS V13.01,2013-05-14 12:23:00,
2013-05-14 07:28:00,61.1,53.1,30.08,SW,221,0.0,0.0,75,0.00,,---,0.00,VWS V13.01,2013-05-14 12:28:00,
2013-05-14 07:33:00,61.5,53.5,30.08,NE,38,0.0,0.0,75,0.00,,---,0.00,VWS V13.01,2013-05-14 12:33:00,
2013-05-14 07:38:00,62.0,54.4,30.08,NE,38,0.0,0.0,76,0.00,,---,0.00,VWS V13.01,2013-05-14 12:38:00,
2013-05-14 07:44:00,62.6,54.9,30.08,NE,37,0.0,0.0,76,0.00,,---,0.00,VWS V13.01,2013-05-14 12:44:00,
2013-05-14 07:49:00,63.2,55.5,30.08,NE,37,0.0,0.0,76,0.00,,---,0.00,VWS V13.01,2013-05-14 12:49:00,
2013-05-14 07:54:00,63.8,56.1,30.08,NE,38,0.0,0.0,76,0.00,,---,0.00,VWS V13.01,2013-05-14 12:54:00,
2013-05-14 07:59:00,64.5,56.4,30.08,NE,38,0.0,0.0,75,0.00,,---,0.00,VWS V13.01,2013-05-14 12:59:00,
2013-05-14 08:04:00,65.1,56.6,30.08,NE,38,0.0,0.0,74,0.00,,---,0.00,VWS V13.01,2013-05-14 13:04:00,
2013-05-14 08:09:00,65.6,56.7,30.08,NE,38,0.0,0.0,73,0.00,,---,0.00,VWS V13.01,2013-05-14 13:09:00,
2013-05-14 08:14:00,65.9,56.2,30.08,NE,38,0.0,0.0,71,0.00,,---,0.00,VWS V13.01,2013-05-14 13:14:00,
2013-05-14 08:19:00,66.1,55.7,30.08,NE,38,0.0,0.0,69,0.00,,---,0.00,VWS V13.01,2013-05-14 13:19:00,
2013-05-14 08:24:00,66.3,55.4,30.08,NE,38,0.0,3.0,68,0.00,,---,0.00,VWS V13.01,2013-05-14 13:24:00,
2013-05-14 08:29:00,66.7,55.4,30.08,North,11,0.0,4.0,67,0.00,,---,0.00,VWS V13.01,2013-05-14 13:29:00,
2013-05-14 08:34:00,67.0,54.9,30.08,North,355,0.0,4.0,65,0.00,,---,0.00,VWS V13.01,2013-05-14 13:34:00,
2013-05-14 08:39:00,67.5,55.8,30.09,North,355,0.0,0.0,66,0.00,,---,0.00,VWS V13.01,2013-05-14 13:39:00,
2013-05-14 08:44:00,67.9,54.4,30.09,North,355,0.0,1.0,62,0.00,,---,0.00,VWS V13.01,2013-05-14 13:44:00,
2013-05-14 08:50:00,68.5,55.4,30.09,NNW,343,0.0,4.0,63,0.00,,---,0.00,VWS V13.01,2013-05-14 13:50:00,
2013-05-14 08:55:00,68.9,55.4,30.09,NNW,329,0.0,4.0,62,0.00,,---,0.00,VWS V13.01,2013-05-14 13:55:00,
2013-05-14 09:00:00,69.3,55.7,30.09,NW,323,0.0,4.0,62,0.00,,---,0.00,VWS V13.01,2013-05-14 14:00:00,
2013-05-14 09:05:00,69.7,55.7,30.09,NW,324,0.0,4.0,61,0.00,,---,0.00,VWS V13.01,2013-05-14 14:05:00,
2013-05-14 09:10:00,70.1,56.0,30.09,NW,321,0.0,1.0,61,0.00,,---,0.00,VWS V13.01,2013-05-14 14:10:00,
2013-05-14 09:15:00,70.5,56.4,30.09,NW,310,0.0,4.0,61,0.00,,---,0.00,VWS V13.01,2013-05-14 14:15:00,
2013-05-14 09:20:00,70.7,57.1,30.09,NW,325,0.0,6.0,62,0.00,,---,0.00,VWS V13.01,2013-05-14 14:20:00,
2013-05-14 09:25:00,71.1,57.0,30.09,NW,319,2.0,6.0,61,0.00,,---,0.00,VWS V13.01,2013-05-14 14:25:00,
2013-05-14 09:30:00,71.3,57.2,30.09,NW,326,0.0,6.0,61,0.00,,---,0.00,VWS V13.01,2013-05-14 14:30:00,
2013-05-14 09:35:00,71.6,57.0,30.09,NW,324,0.0,6.0,60,0.00,,---,0.00,VWS V13.01,2013-05-14 14:35:00,
2013-05-14 09:40:00,71.9,56.8,30.09,NW,315,4.0,5.0,59,0.00,,---,0.00,VWS V13.01,2013-05-14 14:40:00,
2013-05-14 09:45:00,72.1,57.5,30.09,NW,318,0.0,5.0,60,0.00,,---,0.00,VWS V13.01,2013-05-14 14:45:00,
2013-05-14 09:50:00,72.3,57.7,30.09,NW,318,0.0,5.0,60,0.00,,---,0.00,VWS V13.01,2013-05-14 14:50:00,
2013-05-14 09:55:00,72.5,56.4,30.09,WNW,302,1.0,5.0,57,0.00,,---,0.00,VWS V13.01,2013-05-14 14:55:00,
2013-05-14 10:00:00,72.7,57.1,30.09,NW,315,2.0,5.0,58,0.00,,---,0.00,VWS V13.01,2013-05-14 15:00:00,
2013-05-14 10:05:00,73.0,56.4,30.09,NW,309,0.0,5.0,56,0.00,,---,0.00,VWS V13.01,2013-05-14 15:05:00,
2013-05-14 10:10:00,73.2,56.6,30.09,NW,309,0.0,4.0,56,0.00,,---,0.00,VWS V13.01,2013-05-14 15:10:00,
2013-05-14 10:15:00,73.4,56.8,30.09,NW,309,0.0,4.0,56,0.00,,---,0.00,VWS V13.01,2013-05-14 15:15:00,
2013-05-14 10:20:00,73.5,56.9,30.09,NW,309,0.0,4.0,56,0.00,,---,0.00,VWS V13.01,2013-05-14 15:20:00,
2013-05-14 10:26:00,73.8,57.1,30.09,NW,309,1.0,4.0,56,0.00,,---,0.00,VWS V13.01,2013-05-14 15:26:00,
2013-05-14 10:30:00,74.2,58.0,30.09,NW,309,0.0,4.0,57,0.00,,---,0.00,VWS V13.01,2013-05-14 15:30:00,
2013-05-14 10:35:00,74.4,56.7,30.09,WNW,298,0.0,4.0,54,0.00,,---,0.00,VWS V13.01,2013-05-14 15:35:00,
2013-05-14 10:41:00,74.8,58.6,30.09,WNW,284,0.0,6.0,57,0.00,,---,0.00,VWS V13.01,2013-05-14 15:41:00,
2013-05-14 10:46:00,75.2,57.9,30.09,WNW,284,0.0,6.0,55,0.00,,---,0.00,VWS V13.01,2013-05-14 15:46:00,
2013-05-14 10:51:00,75.5,58.2,30.09,West,281,0.0,6.0,55,0.00,,---,0.00,VWS V13.01,2013-05-14 15:51:00,
2013-05-14 10:56:00,75.8,58.5,30.09,West,277,0.0,6.0,55,0.00,,---,0.00,VWS V13.01,2013-05-14 15:56:00,
2013-05-14 11:01:00,75.9,57.6,30.09,WSW,250,0.0,6.0,53,0.00,,---,0.00,VWS V13.01,2013-05-14 16:01:00,
2013-05-14 11:06:00,76.2,58.9,30.09,WSW,250,0.0,0.0,55,0.00,,---,0.00,VWS V13.01,2013-05-14 16:06:00,
2013-05-14 11:11:00,76.5,58.1,30.08,WSW,248,0.0,4.0,53,0.00,,---,0.00,VWS V13.01,2013-05-14 16:11:00,
2013-05-14 11:16:00,76.7,60.3,30.08,SW,230,1.0,4.0,57,0.00,,---,0.00,VWS V13.01,2013-05-14 16:16:00,
2013-05-14 11:21:00,77.1,59.7,30.09,NW,311,0.0,4.0,55,0.00,,---,0.00,VWS V13.01,2013-05-14 16:21:00,
2013-05-14 11:26:00,77.6,60.7,30.08,NW,311,0.0,4.0,56,0.00,,---,0.00,VWS V13.01,2013-05-14 16:26:00,
2013-05-14 11:31:00,78.0,59.5,30.08,NW,313,0.0,4.0,53,0.00,,---,0.00,VWS V13.01,2013-05-14 16:31:00,
2013-05-14 11:36:00,78.6,61.1,30.08,NW,314,0.0,1.0,55,0.00,,---,0.00,VWS V13.01,2013-05-14 16:36:00,
2013-05-14 11:41:00,79.0,61.0,30.08,NW,314,0.0,4.0,54,0.00,,---,0.00,VWS V13.01,2013-05-14 16:41:00,
2013-05-14 11:46:00,79.3,60.7,30.08,NW,319,0.0,4.0,53,0.00,,---,0.00,VWS V13.01,2013-05-14 16:46:00,
2013-05-14 11:51:00,79.7,61.1,30.08,NW,317,0.0,4.0,53,0.00,,---,0.00,VWS V13.01,2013-05-14 16:51:00,
2013-05-14 11:56:00,79.9,59.0,30.08,West,269,0.0,4.0,49,0.00,,---,0.00,VWS V13.01,2013-05-14 16:56:00,
2013-05-14 12:01:00,80.0,60.3,30.08,West,268,0.0,4.0,51,0.00,,---,0.00,VWS V13.01,2013-05-14 17:01:00,
2013-05-14 12:06:00,80.3,60.5,30.08,West,279,0.0,1.0,51,0.00,,---,0.00,VWS V13.01,2013-05-14 17:06:00,
2013-05-14 12:11:00,80.4,60.1,30.08,West,270,0.0,4.0,50,0.00,,---,0.00,VWS V13.01,2013-05-14 17:11:00,
2013-05-14 12:16:00,80.8,61.5,30.08,West,270,0.0,4.0,52,0.00,,---,0.00,VWS V13.01,2013-05-14 17:16:00,
2013-05-14 12:21:00,81.7,62.4,30.07,West,269,0.0,4.0,52,0.00,,---,0.00,VWS V13.01,2013-05-14 17:21:00,
2013-05-14 12:26:00,82.3,64.0,30.07,West,271,0.0,4.0,54,0.00,,---,0.00,VWS V13.01,2013-05-14 17:26:00,
2013-05-14 12:32:00,82.4,62.5,30.07,NW,309,0.0,4.0,51,0.00,,---,0.00,VWS V13.01,2013-05-14 17:32:00,
2013-05-14 12:37:00,82.8,62.8,30.07,WNW,288,0.0,5.0,51,0.00,,---,0.00,VWS V13.01,2013-05-14 17:37:00,
2013-05-14 12:42:00,83.3,61.6,30.06,NW,321,0.0,6.0,48,0.00,,---,0.00,VWS V13.01,2013-05-14 17:42:00,
2013-05-14 12:47:00,83.5,62.9,30.06,NNW,332,0.0,6.0,50,0.00,,---,0.00,VWS V13.01,2013-05-14 17:47:00,
2013-05-14 12:52:00,83.8,61.4,30.06,NNW,333,0.0,6.0,47,0.00,,---,0.00,VWS V13.01,2013-05-14 17:52:00,
2013-05-14 12:57:00,83.6,59.4,30.06,SW,223,0.0,6.0,44,0.00,,---,0.00,VWS V13.01,2013-05-14 17:57:00,
2013-05-14 13:02:00,84.2,63.6,30.05,West,259,0.0,6.0,50,0.00,,---,0.00,VWS V13.01,2013-05-14 18:02:00,
2013-05-14 13:07:00,84.2,60.6,30.05,West,273,0.0,4.0,45,0.00,,---,0.00,VWS V13.01,2013-05-14 18:07:00,
2013-05-14 13:12:00,84.5,62.7,30.05,West,274,1.0,4.0,48,0.00,,---,0.00,VWS V13.01,2013-05-14 18:12:00,
2013-05-14 13:17:00,84.4,62.0,30.05,WSW,247,0.0,4.0,47,0.00,,---,0.00,VWS V13.01,2013-05-14 18:17:00,
2013-05-14 13:22:00,85.2,63.3,30.05,NW,311,0.0,7.0,48,0.00,,---,0.00,VWS V13.01,2013-05-14 18:22:00,
2013-05-14 13:27:00,85.3,60.9,30.05,NE,46,0.0,7.0,44,0.00,,---,0.00,VWS V13.01,2013-05-14 18:27:00,
2013-05-14 13:32:00,86.1,62.3,30.04,WNW,286,0.0,7.0,45,0.00,,---,0.00,VWS V13.01,2013-05-14 18:32:00,
2013-05-14 13:37:00,86.3,63.1,30.04,WNW,284,0.0,4.0,46,0.00,,---,0.00,VWS V13.01,2013-05-14 18:37:00,
2013-05-14 13:42:00,86.4,62.6,30.04,North,11,0.0,4.0,45,0.00,,---,0.00,VWS V13.01,2013-05-14 18:42:00,
2013-05-14 13:47:00,86.6,62.1,30.04,NW,322,0.0,7.0,44,0.00,,---,0.00,VWS V13.01,2013-05-14 18:47:00,
2013-05-14 13:52:00,86.8,63.6,30.03,WNW,284,0.0,10.0,46,0.00,,---,0.00,VWS V13.01,2013-05-14 18:52:00,
2013-05-14 13:57:00,87.1,61.2,30.03,WNW,284,0.0,10.0,42,0.00,,---,0.00,VWS V13.01,2013-05-14 18:57:00,
2013-05-14 14:02:00,87.6,63.0,30.03,NW,315,0.0,10.0,44,0.00,,---,0.00,VWS V13.01,2013-05-14 19:02:00,
2013-05-14 14:07:00,87.7,63.1,30.03,NW,315,0.0,5.0,44,0.00,,---,0.00,VWS V13.01,2013-05-14 19:07:00,
2013-05-14 14:12:00,87.5,59.5,30.03,West,278,0.0,5.0,39,0.00,,---,0.00,VWS V13.01,2013-05-14 19:12:00,
2013-05-14 14:18:00,87.4,61.5,30.02,West,277,0.0,5.0,42,0.00,,---,0.00,VWS V13.01,2013-05-14 19:18:00,
2013-05-14 14:23:00,87.6,61.0,30.02,West,279,0.0,5.0,41,0.00,,---,0.00,VWS V13.01,2013-05-14 19:23:00,
2013-05-14 14:28:00,87.8,60.5,30.02,West,260,1.0,6.0,40,0.00,,---,0.00,VWS V13.01,2013-05-14 19:28:00,
2013-05-14 14:33:00,87.5,60.2,30.02,NW,317,1.0,6.0,40,0.00,,---,0.00,VWS V13.01,2013-05-14 19:33:00,
2013-05-14 14:38:00,88.3,62.3,30.02,West,279,0.0,4.0,42,0.00,,---,0.00,VWS V13.01,2013-05-14 19:38:00,
2013-05-14 14:43:00,88.5,59.7,30.02,WNW,286,0.0,5.0,38,0.00,,---,0.00,VWS V13.01,2013-05-14 19:43:00,
2013-05-14 14:48:00,89.0,62.3,30.01,NNW,340,2.0,6.0,41,0.00,,---,0.00,VWS V13.01,2013-05-14 19:48:00,
2013-05-14 14:53:00,88.9,61.5,30.01,NW,322,0.0,6.0,40,0.00,,---,0.00,VWS V13.01,2013-05-14 19:53:00,
2013-05-14 14:58:00,88.8,60.7,30.01,NW,304,0.0,6.0,39,0.00,,---,0.00,VWS V13.01,2013-05-14 19:58:00,
2013-05-14 15:03:00,88.8,58.4,30.01,WNW,288,4.0,7.0,36,0.00,,---,0.00,VWS V13.01,2013-05-14 20:03:00,
2013-05-14 15:08:00,89.2,61.8,30.01,SW,227,0.0,2.0,40,0.00,,---,0.00,VWS V13.01,2013-05-14 20:08:00,
2013-05-14 15:13:00,89.0,59.4,30.01,WSW,245,4.0,6.0,37,0.00,,---,0.00,VWS V13.01,2013-05-14 20:13:00,
2013-05-14 15:18:00,89.3,59.6,30.01,NNW,332,0.0,6.0,37,0.00,,---,0.00,VWS V13.01,2013-05-14 20:18:00,
2013-05-14 15:23:00,89.1,60.9,30.01,NW,308,0.0,6.0,39,0.00,,---,0.00,VWS V13.01,2013-05-14 20:23:00,
2013-05-14 15:28:00,88.6,61.9,30.00,West,265,0.0,6.0,41,0.00,,---,0.00,VWS V13.01,2013-05-14 20:28:00,
2013-05-14 15:33:00,88.8,59.9,30.00,South,173,0.0,6.0,38,0.00,,---,0.00,VWS V13.01,2013-05-14 20:33:00,
2013-05-14 15:38:00,88.9,62.2,30.00,South,174,4.0,5.0,41,0.00,,---,0.00,VWS V13.01,2013-05-14 20:38:00,
2013-05-14 15:43:00,89.1,59.5,30.00,SW,234,4.0,14.0,37,0.00,,---,0.00,VWS V13.01,2013-05-14 20:43:00,
2013-05-14 15:48:00,89.1,63.0,29.99,SW,234,0.0,14.0,42,0.00,,---,0.00,VWS V13.01,2013-05-14 20:48:00,
2013-05-14 15:53:00,89.0,60.1,29.99,SSW,204,6.0,14.0,38,0.00,,---,0.00,VWS V13.01,2013-05-14 20:53:00,
2013-05-14 15:58:00,88.9,59.3,29.99,SW,230,2.0,17.0,37,0.00,,---,0.00,VWS V13.01,2013-05-14 20:58:00,
2013-05-14 16:03:00,88.7,58.3,29.99,SW,220,6.0,17.0,36,0.00,,---,0.00,VWS V13.01,2013-05-14 21:03:00,
2013-05-14 16:08:00,88.8,59.2,29.99,WSW,252,2.0,10.0,37,0.00,,---,0.00,VWS V13.01,2013-05-14 21:08:00,
2013-05-14 16:13:00,88.6,56.7,29.99,SW,232,8.0,17.0,34,0.00,,---,0.00,VWS V13.01,2013-05-14 21:13:00,
2013-05-14 16:18:00,88.4,58.1,29.99,SW,228,1.0,17.0,36,0.00,,---,0.00,VWS V13.01,2013-05-14 21:18:00,
2013-05-14 16:23:00,88.6,56.7,29.99,WSW,244,1.0,17.0,34,0.00,,---,0.00,VWS V13.01,2013-05-14 21:23:00,
2013-05-14 16:28:00,88.7,55.9,29.99,South,188,3.0,17.0,33,0.00,,---,0.00,VWS V13.01,2013-05-14 21:28:00,
2013-05-14 16:33:00,88.8,56.0,29.99,WNW,300,0.0,17.0,33,0.00,,---,0.00,VWS V13.01,2013-05-14 21:33:00,
2013-05-14 16:38:00,88.7,58.3,29.99,WSW,243,0.0,10.0,36,0.00,,---,0.00,VWS V13.01,2013-05-14 21:38:00,
2013-05-14 16:44:00,88.6,57.5,29.98,South,180,6.0,18.0,35,0.00,,---,0.00,VWS V13.01,2013-05-14 21:44:00,
2013-05-14 16:49:00,88.4,56.5,29.98,SSW,200,2.0,18.0,34,0.00,,---,0.00,VWS V13.01,2013-05-14 21:49:00,
2013-05-14 16:54:00,88.3,56.4,29.98,SSW,210,6.0,19.0,34,0.00,,---,0.00,VWS V13.01,2013-05-14 21:54:00,
2013-05-14 16:59:00,88.2,57.1,29.98,WSW,254,1.0,19.0,35,0.00,,---,0.00,VWS V13.01,2013-05-14 21:59:00,
2013-05-14 17:04:00,88.1,56.2,29.98,West,275,0.0,19.0,34,0.00,,---,0.00,VWS V13.01,2013-05-14 22:04:00,
2013-05-14 17:09:00,88.2,58.7,29.98,WNW,300,0.0,9.0,37,0.00,,---,0.00,VWS V13.01,2013-05-14 22:09:00,
2013-05-14 17:14:00,87.9,57.6,29.98,WSW,242,0.0,9.0,36,0.00,,---,0.00,VWS V13.01,2013-05-14 22:14:00,
2013-05-14 17:19:00,87.8,57.5,29.98,West,271,0.0,10.0,36,0.00,,---,0.00,VWS V13.01,2013-05-14 22:19:00,
2013-05-14 17:24:00,87.7,57.5,29.98,WSW,258,3.0,10.0,36,0.00,,---,0.00,VWS V13.01,2013-05-14 22:24:00,
2013-05-14 17:29:00,87.6,56.6,29.98,WSW,240,3.0,11.0,35,0.00,,---,0.00,VWS V13.01,2013-05-14 22:29:00,
2013-05-14 17:34:00,87.5,58.0,29.98,SW,234,0.0,12.0,37,0.00,,---,0.00,VWS V13.01,2013-05-14 22:34:00,
2013-05-14 17:40:00,87.3,57.9,29.98,NW,304,0.0,9.0,37,0.00,,---,0.00,VWS V13.01,2013-05-14 22:40:00,
2013-05-14 17:45:00,87.3,58.6,29.97,SSW,211,2.0,11.0,38,0.00,,---,0.00,VWS V13.01,2013-05-14 22:45:00,
2013-05-14 17:50:00,87.3,59.3,29.97,WNW,294,0.0,11.0,39,0.00,,---,0.00,VWS V13.01,2013-05-14 22:50:00,
2013-05-14 17:55:00,87.1,59.2,29.98,South,180,5.0,11.0,39,0.00,,---,0.00,VWS V13.01,2013-05-14 22:55:00,
2013-05-14 18:00:00,86.4,58.5,29.98,South,190,1.0,12.0,39,0.00,,---,0.00,VWS V13.01,2013-05-14 23:00:00,
2013-05-14 18:05:00,86.0,58.9,29.98,SW,215,11.0,14.0,40,0.00,,---,0.00,VWS V13.01,2013-05-14 23:05:00,
2013-05-14 18:10:00,85.8,58.7,29.98,South,175,1.0,17.0,40,0.00,,---,0.00,VWS V13.01,2013-05-14 23:10:00,
2013-05-14 18:15:00,85.6,58.5,29.98,WSW,241,8.0,17.0,40,0.00,,---,0.00,VWS V13.01,2013-05-14 23:15:00,
2013-05-14 18:20:00,85.5,57.7,29.98,SW,231,5.0,17.0,39,0.00,,---,0.00,VWS V13.01,2013-05-14 23:20:00,
2013-05-14 18:25:00,85.3,58.3,29.98,SW,228,5.0,17.0,40,0.00,,---,0.00,VWS V13.01,2013-05-14 23:25:00,
2013-05-14 18:30:00,85.1,57.4,29.98,SW,221,0.0,17.0,39,0.00,,---,0.00,VWS V13.01,2013-05-14 23:30:00,
2013-05-14 18:36:00,84.9,57.9,29.98,SW,234,6.0,17.0,40,0.00,,---,0.00,VWS V13.01,2013-05-14 23:36:00,
2013-05-14 18:41:00,84.7,57.7,29.98,SW,234,0.0,15.0,40,0.00,,---,0.00,VWS V13.01,2013-05-14 23:41:00,
2013-05-14 18:46:00,84.5,57.5,29.98,WSW,244,0.0,15.0,40,0.00,,---,0.00,VWS V13.01,2013-05-14 23:46:00,
2013-05-14 18:51:00,84.3,57.4,29.98,WNW,300,3.0,15.0,40,0.00,,---,0.00,VWS V13.01,2013-05-14 23:51:00,
2013-05-14 18:56:00,84.1,57.9,29.98,South,191,4.0,15.0,41,0.00,,---,0.00,VWS V13.01,2013-05-14 23:56:00,
2013-05-14 19:01:00,84.0,58.5,29.98,SSW,209,0.0,15.0,42,0.00,,---,0.00,VWS V13.01,2013-05-15 00:01:00,
2013-05-14 19:06:00,83.8,58.3,29.98,SW,217,0.0,15.0,42,0.00,,---,0.00,VWS V13.01,2013-05-15 00:06:00,
2013-05-14 19:11:00,83.6,60.0,29.97,SW,221,3.0,6.0,45,0.00,,---,0.00,VWS V13.01,2013-05-15 00:11:00,
2013-05-14 19:16:00,83.4,59.8,29.97,South,191,0.0,6.0,45,0.00,,---,0.00,VWS V13.01,2013-05-15 00:16:00,
2013-05-14 19:21:00,83.2,60.3,29.97,SSW,209,0.0,9.0,46,0.00,,---,0.00,VWS V13.01,2013-05-15 00:21:00,
2013-05-14 19:26:00,82.9,60.6,29.97,South,182,0.0,9.0,47,0.00,,---,0.00,VWS V13.01,2013-05-15 00:26:00,
2013-05-14 19:31:00,82.6,60.9,29.97,SSW,200,2.0,9.0,48,0.00,,---,0.00,VWS V13.01,2013-05-15 00:31:00,
2013-05-14 19:36:00,82.3,61.2,29.97,SW,221,1.0,9.0,49,0.00,,---,0.00,VWS V13.01,2013-05-15 00:36:00,
2013-05-14 19:41:00,81.9,60.9,29.97,SW,229,0.0,6.0,49,0.00,,---,0.00,VWS V13.01,2013-05-15 00:41:00,
2013-05-14 19:46:00,81.5,60.5,29.97,SSW,206,2.0,10.0,49,0.00,,---,0.00,VWS V13.01,2013-05-15 00:46:00,
2013-05-14 19:51:00,81.2,60.8,29.97,WSW,240,0.0,10.0,50,0.00,,---,0.00,VWS V13.01,2013-05-15 00:51:00,
2013-05-14 19:56:00,80.7,60.3,29.97,SSW,207,0.0,10.0,50,0.00,,---,0.00,VWS V13.01,2013-05-15 00:56:00,
2013-05-14 20:01:00,80.4,59.5,29.98,SSW,209,1.0,10.0,49,0.00,,---,0.00,VWS V13.01,2013-05-15 01:01:00,
2013-05-14 20:06:00,80.0,59.7,29.97,South,174,3.0,3.0,50,0.00,,---,0.00,VWS V13.01,2013-05-15 01:06:00,
2013-05-14 20:11:00,79.8,59.0,29.98,South,184,1.0,7.0,49,0.00,,---,0.00,VWS V13.01,2013-05-15 01:11:00,
2013-05-14 20:16:00,79.4,59.2,29.98,South,182,1.0,9.0,50,0.00,,---,0.00,VWS V13.01,2013-05-15 01:16:00,
2013-05-14 20:22:00,79.2,59.0,29.98,South,175,0.0,9.0,50,0.00,,---,0.00,VWS V13.01,2013-05-15 01:22:00,
2013-05-14 20:27:00,78.9,59.2,29.97,South,175,5.0,14.0,51,0.00,,---,0.00,VWS V13.01,2013-05-15 01:27:00,
2013-05-14 20:32:00,78.7,59.6,29.97,South,185,12.0,14.0,52,0.00,,---,0.00,VWS V13.01,2013-05-15 01:32:00,
2013-05-14 20:37:00,78.4,59.3,29.97,SSW,198,5.0,6.0,52,0.00,,---,0.00,VWS V13.01,2013-05-15 01:37:00,
2013-05-14 20:42:00,78.3,59.2,29.97,SSW,205,0.0,10.0,52,0.00,,---,0.00,VWS V13.01,2013-05-15 01:42:00,
2013-05-14 20:47:00,78.2,59.7,29.98,SSW,211,2.0,12.0,53,0.00,,---,0.00,VWS V13.01,2013-05-15 01:47:00,
2013-05-14 20:52:00,78.1,59.6,29.98,South,180,3.0,12.0,53,0.00,,---,0.00,VWS V13.01,2013-05-15 01:52:00,
2013-05-14 20:57:00,78.0,60.0,29.98,SSW,207,3.0,12.0,54,0.00,,---,0.00,VWS V13.01,2013-05-15 01:57:00,
2013-05-14 21:02:00,77.8,59.8,29.99,South,188,7.0,12.0,54,0.00,,---,0.00,VWS V13.01,2013-05-15 02:02:00,
2013-05-14 21:07:00,77.6,60.2,29.99,South,173,0.0,3.0,55,0.00,,---,0.00,VWS V13.01,2013-05-15 02:07:00,
2013-05-14 21:12:00,77.4,60.0,29.99,SSW,205,0.0,5.0,55,0.00,,---,0.00,VWS V13.01,2013-05-15 02:12:00,
2013-05-14 21:17:00,77.2,59.3,29.99,SSW,194,0.0,9.0,54,0.00,,---,0.00,VWS V13.01,2013-05-15 02:17:00,
2013-05-14 21:22:00,77.1,59.7,29.99,SSW,196,3.0,9.0,55,0.00,,---,0.00,VWS V13.01,2013-05-15 02:22:00,
2013-05-14 21:27:00,76.9,59.5,29.99,SSW,197,0.0,9.0,55,0.00,,---,0.00,VWS V13.01,2013-05-15 02:27:00,
2013-05-14 21:32:00,76.6,59.2,29.99,SSW,197,0.0,9.0,55,0.00,,---,0.00,VWS V13.01,2013-05-15 02:32:00,
2013-05-14 21:37:00,76.4,59.6,29.99,SSW,197,0.0,0.0,56,0.00,,---,0.00,VWS V13.01,2013-05-15 02:37:00,
2013-05-14 21:42:00,76.2,59.4,29.99,SSW,197,0.0,1.0,56,0.00,,---,0.00,VWS V13.01,2013-05-15 02:42:00,
2013-05-14 21:47:00,75.9,58.6,30.00,South,184,0.0,9.0,55,0.00,,---,0.00,VWS V13.01,2013-05-15 02:47:00,
2013-05-14 21:52:00,75.6,58.3,30.00,South,190,0.0,9.0,55,0.00,,---,0.00,VWS V13.01,2013-05-15 02:52:00,
2013-05-14 21:57:00,75.4,58.1,30.00,SSW,196,0.0,9.0,55,0.00,,---,0.00,VWS V13.01,2013-05-15 02:57:00,
2013-05-14 22:02:00,75.1,57.3,30.00,WSW,244,2.0,11.0,54,0.00,,---,0.00,VWS V13.01,2013-05-15 03:02:00,
2013-05-14 22:07:00,75.0,57.2,30.00,SW,228,0.0,0.0,54,0.00,,---,0.00,VWS V13.01,2013-05-15 03:07:00,
2013-05-14 22:12:00,74.9,57.2,30.00,South,190,0.0,6.0,54,0.00,,---,0.00,VWS V13.01,2013-05-15 03:12:00,
2013-05-14 22:17:00,74.9,57.2,30.00,SSW,192,0.0,6.0,54,0.00,,---,0.00,VWS V13.01,2013-05-15 03:17:00,
2013-05-14 22:22:00,74.8,57.1,30.00,South,191,0.0,6.0,54,0.00,,---,0.00,VWS V13.01,2013-05-15 03:22:00,
2013-05-14 22:27:00,74.7,57.0,30.00,SSW,211,0.0,6.0,54,0.00,,---,0.00,VWS V13.01,2013-05-15 03:27:00,
2013-05-14 22:32:00,74.7,57.0,30.00,SSW,198,5.0,6.0,54,0.00,,---,0.00,VWS V13.01,2013-05-15 03:32:00,
2013-05-14 22:37:00,74.5,56.3,30.00,SSW,212,1.0,4.0,53,0.00,,---,0.00,VWS V13.01,2013-05-15 03:37:00,
2013-05-14 22:42:00,74.4,56.2,30.00,SSW,211,0.0,4.0,53,0.00,,---,0.00,VWS V13.01,2013-05-15 03:42:00,
2013-05-14 22:47:00,74.3,56.1,30.00,South,177,0.0,4.0,53,0.00,,---,0.00,VWS V13.01,2013-05-15 03:47:00,
2013-05-14 22:52:00,74.1,55.9,30.00,South,172,0.0,4.0,53,0.00,,---,0.00,VWS V13.01,2013-05-15 03:52:00,
2013-05-14 22:57:00,73.9,56.2,30.00,South,184,0.0,7.0,54,0.00,,---,0.00,VWS V13.01,2013-05-15 03:57:00,
2013-05-14 23:01:00,73.8,56.1,30.00,South,184,0.0,7.0,54,0.00,,---,0.00,VWS V13.01,2013-05-15 04:01:00,
2013-05-14 23:02:00,73.7,56.0,30.00,South,184,0.0,7.0,54,0.00,,---,0.00,VWS V13.01,2013-05-15 04:02:00,
2013-05-14 23:03:00,73.7,56.0,30.00,SSW,202,3.0,7.0,54,0.00,,---,0.00,VWS V13.01,2013-05-15 04:03:00,
2013-05-14 23:08:00,73.5,55.9,30.00,South,188,1.0,10.0,54,0.00,,---,0.00,VWS V13.01,2013-05-15 04:08:00,
2013-05-14 23:13:00,73.4,55.8,30.00,SSE,159,0.0,10.0,54,0.00,,---,0.00,VWS V13.01,2013-05-15 04:13:00,
2013-05-14 23:18:00,73.3,55.7,30.00,SSE,161,0.0,10.0,54,0.00,,---,0.00,VWS V13.01,2013-05-15 04:18:00,
2013-05-14 23:23:00,73.1,55.5,30.00,SSE,160,0.0,10.0,54,0.00,,---,0.00,VWS V13.01,2013-05-15 04:23:00,
2013-05-14 23:28:00,73.0,55.4,30.00,SSE,161,0.0,10.0,54,0.00,,---,0.00,VWS V13.01,2013-05-15 04:28:00,
2013-05-14 23:34:00,72.9,54.3,30.00,SW,236,0.0,10.0,52,0.00,,---,0.00,VWS V13.01,2013-05-15 04:34:00,
2013-05-14 23:39:00,72.8,54.7,30.00,SSW,192,0.0,3.0,53,0.00,,---,0.00,VWS V13.01,2013-05-15 04:39:00,
2013-05-14 23:44:00,72.8,54.2,30.01,South,180,0.0,10.0,52,0.00,,---,0.00,VWS V13.01,2013-05-15 04:44:00,
2013-05-14 23:49:00,72.6,54.0,30.01,South,184,0.0,10.0,52,0.00,,---,0.00,VWS V13.01,2013-05-15 04:49:00,
2013-05-14 23:54:00,72.5,53.9,30.01,South,169,0.0,10.0,52,0.00,,---,0.00,VWS V13.01,2013-05-15 04:54:00,
2013-05-14 23:59:00,72.4,53.8,30.01,SSE,164,0.0,10.0,52,0.00,,---,0.00,VWS V13.01,2013-05-15 04:59:00,